Location: Unspecified
(35.7250°N, 0.0000°E)
Time: 04:05:24
(UTC+00:00)

Tiros 1 - Pass Details

Date: 02 July 2019
Orbit: 630 x 664 km, 48.4° (Epoch: 21 July)

Event Time Altitude Azimuth Distance (km) Brightness Sun altitude
Rises 23:04:09 0° 307° (NW) 2,960 11.3 -29.6°
Reaches altitude 10° 23:07:04 10° 325° (NW) 2,042 10.5 -29.7°
Maximum altitude 23:10:32 20° 12° (NNE) 1,485 9.6 -29.9°
Drops below altitude 10° 23:13:58 10° 60° (ENE) 2,024 9.8 -30.1°
Enters shadow 23:14:04 10° 61° (ENE) 2,053 9.9 -30.1°
